Weather History for KFDY - August, 2014

Change the Weather History Date:

Saturday, August 30, 2014

  Actual Average Record
Temperature  
Mean Temperature 75 °F -  
Max Temperature 87 °F 80 °F 99 °F (1953)
Min Temperature 66 °F 59 °F 44 °F (1976)
Cooling Degree Days 10    
Growing Degree Days 25 (Base 50)    
Moisture  
Dew Point 66 °F    
Average Humidity 69    
Maximum Humidity 87    
Minimum Humidity 55    
Precipitation  
Precipitation 0.00 in - - ()
Sea Level Pressure  
Sea Level Pressure 29.96 in    
Wind  
Wind Speed 12 mph (SSW)    
Max Wind Speed 22 mph    
Max Gust Speed 30 mph    
Visibility 10 miles    
Events      
Averages and records for this station are not official NWS values.
T = Trace of Precipitation, MM = Missing Value Source: NWS Daily Summary

Daily Weather History Graph

Daily Weather History Graph

Search for Another Location

Airport or City:

Trip Planner

Search our weather history database for the weather conditions in past years. The results will help you decide how hot, cold, wet, or windy it might be!

Date:

Astronomy

Aug. 30, 2014 Rise Set
Actual Time 6:59 AM EDT 8:10 PM EDT
Civil Twilight 6:30 AM EDT 8:38 PM EDT
Nautical Twilight 5:57 AM EDT 9:12 PM EDT
Astronomical Twilight 5:21 AM EDT 9:47 PM EDT
Moon 11:48 AM EDT (8/30) 10:41 PM EDT (8/30)
Length of Visible Light 14h 07m
Length of Day
13h 11m
Waxing Crescent, 23% of the Moon is Illuminated
Aug 30
Waxing Crescent
Sep 2
First Quarter
Sep 8
Full
Sep 15
Last Quarter
Sep 24
New

Hourly Weather History & Observations

Time (EDT) Temp. Heat Index Dew Point Humidity Pressure Visibility Wind Dir Wind Speed Gust Speed Precip Events Conditions
12:53 AM 73.0 °F - 62.1 °F 68% 30.00 in 10.0 mi SSE 9.2 mph - N/A   Scattered Clouds
1:53 AM 73.0 °F - 63.0 °F 71% 30.00 in 10.0 mi SSE 8.1 mph - N/A   Clear
2:53 AM 73.0 °F - 63.0 °F 71% 29.99 in 10.0 mi South 12.7 mph - N/A   Clear
4:53 AM 69.1 °F - 63.0 °F 81% 29.97 in 10.0 mi South 10.4 mph - N/A   Clear
5:53 AM 68.0 °F - 63.0 °F 84% 29.97 in 10.0 mi South 10.4 mph - N/A   Clear
6:53 AM 66.9 °F - 63.0 °F 87% 29.98 in 10.0 mi South 9.2 mph - N/A   Clear
7:53 AM 70.0 °F - 64.9 °F 84% 29.99 in 10.0 mi South 9.2 mph - N/A   Clear
8:53 AM 75.0 °F - 64.9 °F 71% 29.98 in 10.0 mi South 11.5 mph - N/A   Clear
9:53 AM 80.1 °F 82.3 °F 66.9 °F 64% 29.97 in 10.0 mi SSW 11.5 mph - N/A   Mostly Cloudy
10:53 AM 82.0 °F 84.5 °F 66.9 °F 60% 29.97 in 10.0 mi SSW 13.8 mph - N/A   Mostly Cloudy
11:53 AM 82.9 °F 85.4 °F 66.9 °F 58% 29.98 in 10.0 mi SSW 16.1 mph - N/A   Mostly Cloudy
12:53 PM 82.9 °F 85.8 °F 68.0 °F 60% 29.97 in 10.0 mi SSW 18.4 mph 25.3 mph N/A   Mostly Cloudy
1:53 PM 84.9 °F 88.2 °F 68.0 °F 57% 29.96 in 10.0 mi SSW 16.1 mph - N/A   Mostly Cloudy
2:53 PM 84.9 °F 87.6 °F 66.9 °F 55% 29.95 in 10.0 mi South 20.7 mph 29.9 mph N/A   Mostly Cloudy
3:53 PM 82.0 °F 84.9 °F 68.0 °F 62% 29.94 in 10.0 mi SSW 21.9 mph 29.9 mph N/A   Scattered Clouds
4:53 PM 81.0 °F 83.8 °F 68.0 °F 65% 29.92 in 10.0 mi SSW 18.4 mph 24.2 mph N/A   Clear
5:53 PM 80.1 °F 82.3 °F 66.9 °F 64% 29.91 in 10.0 mi SSW 20.7 mph - N/A   Clear
6:53 PM 79.0 °F - 68.0 °F 69% 29.93 in 10.0 mi SSW 13.8 mph - N/A   Clear
7:53 PM 78.1 °F - 68.0 °F 71% 29.93 in 10.0 mi SSW 13.8 mph - N/A   Clear
8:53 PM 77.0 °F - 68.0 °F 74% 29.93 in 10.0 mi SSW 11.5 mph - N/A   Clear
9:53 PM 77.0 °F - 68.0 °F 74% 29.94 in 10.0 mi SW 9.2 mph - N/A   Clear
11:53 PM 75.9 °F - 69.1 °F 79% 29.95 in 10.0 mi SW 10.4 mph - N/A   Partly Cloudy